Temperature
17 17 17 17 17 17 17 17 16 16 15 15 15 15 15 15 15 14 14 14 14 14 14 14 14 13 13 13 13 13 13 13 12 12 12 12 12 12
17 17 17 17 17 17 17 16 16 16 16 15 15 15 15 14 14 14 14 14 14 14 14 13 13 13 13 13 13 13 13 12 12 12 12 12 12 12
17 17 17 17 17 17 16 16 16 16 16 15 15 15 15 14 14 14 14 14 14 14 13 13 13 13 13 13 12 12 12 12 12 12 12 11 11 11
17 17 17 17 17 16 16 16 16 16 16 15 15 15 14 14 14 14 14 13 13 13 13 13 13 13 12 12 12 12 12 12 12 12 11 11 11 11
17 17 17 17 16 16 16 16 16 16 15 15 15 14 14 14 14 14 14 13 13 13 13 13 13 12 12 12 12 12 12 12 12 11 11 11 11 11
17 17 17 17 16 16 16 16 16 15 15 15 15 14 14 14 14 13 13 13 13 13 13 12 12 12 12 12 12 12 12 11 11 11 11 11 11 11
17 17 17 16 16 16 16 16 15 15 15 15 14 14 14 14 14 13 13 13 13 12 12 12 12 12 12 12 12 12 11 11 11 11 11 11 10 10
17 17 16 16 16 16 15 15 15 15 15 14 14 14 14 14 14 13 13 13 12 12 12 12 12 12 12 12 12 11 11 11 11 11 11 10 10 10
17 16 16 16 16 16 15 15 15 15 15 15 14 14 14 14 13 13 13 13 13 13 12 12 12 12 12 12 11 11 11 11 11 11 11 10 10 10
16 16 16 16 15 15 15 15 15 15 14 14 14 14 14 14 13 13 13 13 13 12 12 12 12 12 12 11 11 11 11 11 11 11 11 10 10 10
16 16 16 15 15 15 15 15 15 14 14 14 14 14 13 13 13 13 13 12 12 12 12 12 12 12 12 11 11 11 11 11 11 11 11 10 10 10
16 15 15 15 15 15 14 14 14 14 14 14 14 13 13 13 13 13 12 12 12 12 12 12 12 11 11 11 11 11 11 11 10 10 10 10 10 9
16 15 15 15 15 14 14 14 14 14 14 13 13 13 13 13 12 12 12 12 12 12 12 12 12 11 11 11 11 11 11 11 11 10 10 10 10 9
15 15 15 15 14 14 14 14 14 13 13 13 13 13 13 13 12 12 12 12 12 12 12 12 11 11 11 11 11 11 11 11 10 10 10 10 9 9
15 15 15 15 14 14 14 14 13 13 13 13 12 12 12 12 12 12 12 12 12 11 11 11 11 11 11 11 11 11 11 10 10 10 10 10 10 9
15 15 14 14 14 14 13 13 13 13 13 12 12 12 12 12 12 12 11 11 11 11 11 11 11 11 11 11 11 10 10 10 10 10 10 10 9 9
14 14 14 14 14 13 13 13 13 13 12 12 12 12 12 11 11 11 11 11 11 11 11 11 11 10 10 10 10 10 10 10 10 10 10 9 9 9
14 14 14 13 13 13 13 13 13 12 12 12 12 12 12 11 11 11 11 11 11 11 11 11 11 10 10 10 10 10 10 10 10 10 9 9 9 9
13 13 13 13 13 13 13 13 13 12 12 12 12 11 11 11 11 11 11 11 10 11 11 11 10 10 10 10 10 10 10 10 10 9 9 9 9 9
13 13 13 13 13 12 12 12 12 12 12 12 11 11 11 11 11 11 11 10 10 10 10 10 10 10 10 10 10 10 10 10 9 9 9 9 9 9
13 13 13 12 12 12 12 12 12 12 11 11 11 11 11 11 11 10 10 10 10 10 10 10 10 10 10 10 9 9 10 9 9 9 9 9 8 8
13 13 13 12 12 12 12 11 11 11 11 11 11 11 11 10 10 10 10 10 10 10 10 10 10 10 9 9 9 9 9 9 9 9 8 8 8 8
13 12 12 12 12 12 11 11 11 11 11 11 11 10 10 10 10 10 10 10 10 10 10 10 10 9 9 9 9 9 9 9 8 8 8 8 8 8
Wind_Speed
2 2 2 2 2 3 4 5 5 3 2 2 1 2 3 4 4 5 4 4 3 3 3 4 4 4 4 4 4 4 5 5 5 5 5 5 4 4
1 1 1 1 2 2 3 3 3 4 3 3 2 2 3 3 4 4 4 3 3 3 3 4 4 4 4 4 5 5 5 5 5 5 5 5 5 5
0 1 1 2 2 2 2 2 2 3 3 1 1 1 2 3 3 4 3 3 2 3 4 4 4 4 4 5 5 5 5 4 4 5 5 4 4 4
1 1 1 2 2 2 2 2 2 2 3 3 1 1 2 3 4 3 3 3 3 3 4 4 4 4 4 4 5 5 5 5 5 5 5 4 4 4
2 2 2 3 2 2 2 2 2 2 3 3 2 1 1 2 2 2 2 1 3 4 5 5 5 4 4 4 4 4 5 5 5 5 5 4 4 5
2 2 2 3 3 3 3 3 3 3 2 3 2 1 1 1 2 1 1 1 2 3 3 5 5 5 5 5 5 5 5 6 5 5 5 5 5 4
1 1 1 3 4 4 4 3 4 3 3 2 2 1 1 2 3 2 2 2 2 2 2 3 4 4 5 7 7 7 7 7 7 7 7 6 6 6
2 1 1 2 3 4 5 6 7 6 5 3 3 3 4 4 3 3 3 2 2 3 3 3 3 4 6 7 8 9 9 8 8 8 8 8 7 7
3 2 1 1 2 2 3 3 4 6 8 7 6 6 5 6 5 4 4 4 4 3 3 3 3 4 6 8 10 10 10 10 10 10 10 9 9 8
3 3 3 2 3 4 3 2 2 3 5 6 6 7 6 6 7 7 6 4 2 2 4 3 3 4 5 7 10 12 12 12 12 11 11 11 10 9
3 3 4 4 5 6 4 3 2 3 3 5 6 6 7 8 7 4 3 2 2 3 3 3 3 3 2 4 9 12 13 13 13 13 12 12 11 10
2 2 4 5 6 6 5 4 4 4 2 1 2 3 4 5 8 7 6 5 3 3 4 4 3 2 2 3 4 7 9 11 13 13 13 12 12 9
3 3 3 5 6 6 6 5 6 4 3 3 2 2 2 2 4 5 6 6 5 4 4 4 3 3 3 2 2 4 6 6 8 9 11 12 12 11
4 4 3 5 5 5 4 5 5 3 2 1 2 2 3 3 4 4 6 7 7 6 6 6 4 5 4 2 3 2 3 5 6 6 7 9 11 13
3 4 3 4 4 4 5 5 4 3 2 2 3 4 3 4 3 2 2 3 4 5 5 6 4 4 5 5 3 2 2 3 5 5 5 6 6 6
2 2 3 3 2 3 3 3 3 4 4 4 4 4 2 2 2 2 2 2 2 4 4 5 6 5 4 4 4 4 4 4 4 5 5 5 6 8
2 1 1 1 2 2 2 3 3 3 3 4 3 3 3 3 3 3 3 3 4 4 4 3 3 4 5 5 4 5 4 4 4 5 5 5 5 7
4 2 3 3 4 4 4 4 4 4 4 4 4 4 4 4 4 3 3 4 5 5 5 4 2 1 1 3 7 6 5 5 4 5 5 5 6 6
3 4 4 5 4 4 4 4 5 5 4 4 4 5 4 4 4 4 4 4 5 6 5 4 4 4 5 6 5 7 6 5 4 5 6 6 7 7
4 5 5 5 5 4 5 5 5 4 4 4 5 5 5 5 5 5 5 5 5 5 5 4 5 6 8 7 5 3 7 6 5 6 5 4 4 4
5 5 5 5 5 5 5 5 5 4 4 4 5 5 5 5 5 5 5 6 5 5 6 7 8 9 5 2 2 3 3 7 8 5 5 4 3 3
5 5 5 5 5 5 5 4 4 4 4 5 5 5 5 5 6 6 6 5 5 6 7 6 4 3 3 5 6 6 5 3 5 7 7 7 5 5
5 5 4 4 4 3 3 4 4 4 4 4 4 5 5 5 5 5 6 6 5 5 5 4 3 3 4 5 5 5 5 4 2 2 4 7 9 9
Wind_Direction
198 195 197 201 177 170 164 162 159 177 219 221 217 213 178 168 170 165 165 159 150 136 130 126 124 125 120 119 121 120 115 113 111 113 115 117 114 113
188 169 185 184 174 171 171 172 163 164 189 213 210 196 182 166 168 164 171 167 170 164 151 142 132 127 126 122 116 115 116 115 118 122 121 116 114 117
131 140 166 162 165 172 164 157 149 145 158 210 189 163 162 164 157 163 156 153 173 176 172 159 152 148 140 132 128 127 133 135 137 137 135 133 131 135
156 131 156 140 144 156 146 154 164 154 151 167 188 166 184 178 166 172 173 172 183 190 178 171 170 169 161 153 148 149 153 154 153 154 155 152 147 149
152 152 157 128 140 147 149 155 161 148 137 151 176 191 181 165 150 193 193 186 197 202 197 195 190 186 184 177 172 169 170 171 171 170 169 167 162 158
140 151 161 157 168 165 156 157 148 132 130 144 155 183 192 179 155 176 204 224 218 202 202 204 205 205 205 203 200 192 193 195 193 189 183 178 174 170
122 138 160 161 163 164 153 155 147 144 147 147 161 159 195 178 198 190 194 212 240 214 202 218 209 218 222 223 218 215 213 212 210 206 202 196 193 190
174 204 201 154 162 162 160 160 160 161 170 170 183 197 213 206 195 186 174 165 246 230 182 230 202 224 229 224 227 222 221 220 219 217 212 206 203 202
186 193 210 199 172 166 173 167 186 191 182 180 190 209 207 204 189 194 197 196 217 209 174 227 220 230 233 235 232 228 226 222 222 221 219 216 215 213
192 193 195 215 201 179 171 171 211 225 216 204 205 213 210 202 196 199 204 211 238 209 170 207 222 230 236 232 232 229 227 224 223 223 223 221 217 217
209 200 191 203 216 191 176 192 230 266 247 214 209 211 209 201 188 165 165 171 231 237 197 189 215 227 236 238 232 229 224 223 224 225 225 223 219 219
241 237 215 210 209 195 188 190 217 244 237 252 241 241 225 212 197 190 188 192 205 232 212 187 195 169 249 253 233 228 225 230 229 228 226 223 218 215
222 239 244 222 213 208 200 205 219 222 217 222 240 251 251 240 229 217 204 197 200 226 212 180 189 185 196 236 251 226 217 224 227 232 231 226 219 209
218 227 232 226 226 221 214 226 221 201 198 216 241 256 250 246 243 232 225 222 221 221 212 185 189 191 186 201 247 247 228 221 212 222 229 228 224 220
225 219 223 228 227 231 234 226 209 198 196 212 235 247 246 249 256 255 247 236 247 250 232 204 194 193 189 201 212 210 219 231 216 217 220 219 218 215
242 251 252 243 237 246 242 231 217 209 204 220 235 246 249 253 248 236 239 236 245 266 263 228 209 196 208 212 201 213 206 207 213 216 215 225 226 221
180 183 244 247 246 252 250 244 230 218 225 231 233 248 254 250 250 238 229 225 228 244 258 262 243 223 213 200 212 225 220 221 213 202 201 222 234 231
157 204 226 229 231 233 235 240 234 230 231 231 234 238 243 245 251 247 232 227 235 241 244 239 223 248 307 267 221 219 222 226 219 202 197 210 235 235
182 217 226 229 232 232 234 234 236 235 228 227 233 238 238 240 245 250 244 240 243 243 243 228 210 203 231 256 259 220 216 225 208 209 212 214 229 234
222 227 234 234 232 231 233 239 244 245 236 235 238 240 239 238 242 245 243 242 246 248 250 238 222 216 222 234 238 243 217 210 208 216 222 228 241 248
232 233 234 233 233 232 235 237 239 239 239 237 240 240 240 238 241 243 243 245 244 245 247 248 243 232 224 201 240 254 240 217 208 207 204 208 232 235
233 236 239 238 235 231 232 236 240 245 245 245 247 246 241 233 235 239 240 241 244 244 248 253 243 207 194 211 230 241 245 242 231 223 215 205 200 212
236 235 236 236 233 231 233 237 240 249 249 247 248 249 245 240 237 236 238 240 244 249 250 252 239 214 216 217 226 235 237 236 231 228 253 251 236 234
Height
1540 1539 1539 1539 1539 1539 1540 1540 1541 1540 1540 1540 1541 1541 1541 1541 1541 1541 1540 1539 1539 1538 1537 1537 1536 1535 1535 1534 1534 1534 1533 1533 1534 1534 1533 1533 1533 1533
1538 1538 1537 1537 1537 1538 1538 1539 1539 1539 1538 1539 1539 1540 1540 1540 1540 1540 1539 1539 1538 1538 1537 1536 1536 1535 1534 1534 1533 1533 1533 1533 1533 1533 1532 1532 1532 1531
1537 1536 1536 1536 1536 1536 1536 1537 1537 1537 1537 1537 1538 1538 1538 1538 1538 1538 1538 1538 1538 1537 1537 1536 1535 1535 1534 1533 1533 1532 1532 1532 1532 1531 1532 1531 1531 1530
1536 1535 1535 1534 1534 1534 1535 1535 1535 1536 1536 1535 1536 1536 1537 1537 1537 1537 1537 1537 1537 1537 1536 1535 1535 1534 1534 1533 1532 1532 1531 1531 1531 1530 1530 1530 1529 1529
1535 1534 1534 1533 1533 1533 1533 1533 1534 1534 1534 1534 1534 1535 1535 1535 1535 1536 1536 1536 1536 1535 1535 1535 1534 1534 1533 1533 1532 1531 1531 1530 1530 1530 1529 1529 1529 1528
1533 1533 1533 1532 1532 1531 1531 1532 1532 1533 1533 1533 1533 1533 1533 1533 1534 1533 1533 1534 1534 1534 1534 1533 1533 1533 1532 1532 1531 1530 1529 1529 1529 1529 1528 1528 1528 1527
1532 1532 1532 1531 1531 1531 1530 1531 1531 1531 1531 1531 1531 1531 1531 1531 1531 1532 1532 1532 1532 1532 1532 1532 1531 1531 1530 1530 1530 1529 1528 1528 1528 1527 1527 1527 1527 1526
1531 1531 1530 1530 1530 1529 1529 1529 1529 1529 1529 1529 1529 1529 1529 1530 1530 1530 1530 1530 1530 1531 1530 1530 1530 1529 1529 1528 1528 1528 1527 1526 1526 1525 1525 1525 1525 1525
1529 1529 1529 1528 1528 1528 1528 1527 1527 1527 1527 1527 1527 1527 1527 1527 1528 1528 1527 1527 1527 1528 1528 1527 1527 1527 1527 1526 1526 1526 1525 1524 1524 1523 1523 1523 1523 1522
1528 1527 1527 1526 1526 1526 1526 1525 1525 1525 1525 1525 1525 1525 1525 1525 1525 1525 1525 1525 1525 1525 1525 1524 1524 1524 1524 1524 1523 1523 1522 1522 1522 1521 1521 1521 1520 1520
1525 1525 1525 1524 1524 1524 1523 1523 1522 1522 1522 1522 1522 1522 1522 1522 1522 1522 1522 1521 1520 1521 1521 1521 1520 1520 1521 1520 1520 1520 1519 1519 1519 1519 1518 1518 1518 1518
1522 1522 1522 1521 1521 1521 1520 1520 1519 1519 1519 1519 1519 1519 1519 1519 1519 1518 1518 1518 1517 1517 1517 1518 1517 1517 1517 1517 1517 1517 1516 1516 1516 1515 1515 1515 1515 1515
1519 1519 1519 1518 1518 1518 1518 1517 1517 1517 1516 1516 1515 1515 1514 1514 1514 1514 1514 1514 1514 1513 1514 1514 1513 1514 1514 1513 1513 1513 1513 1512 1512 1512 1512 1512 1512 1512
1515 1515 1516 1515 1515 1515 1514 1514 1514 1513 1512 1512 1511 1511 1510 1510 1510 1509 1509 1509 1510 1510 1510 1510 1509 1510 1509 1509 1509 1509 1509 1509 1509 1508 1508 1508 1508 1508
1512 1512 1512 1512 1512 1511 1511 1510 1510 1509 1508 1507 1507 1507 1507 1506 1505 1505 1505 1505 1505 1505 1506 1505 1505 1505 1505 1505 1505 1505 1505 1505 1504 1504 1504 1504 1503 1503
1509 1509 1509 1508 1508 1507 1507 1506 1506 1505 1504 1504 1503 1503 1503 1502 1502 1502 1501 1501 1500 1500 1501 1501 1501 1501 1501 1501 1501 1500 1500 1500 1500 1500 1500 1500 1500 1499
1505 1504 1504 1504 1503 1503 1503 1502 1502 1501 1501 1500 1500 1499 1499 1498 1498 1497 1497 1497 1496 1495 1495 1496 1496 1497 1497 1497 1496 1496 1496 1495 1495 1496 1495 1495 1495 1495
1501 1500 1500 1499 1499 1498 1498 1498 1497 1497 1497 1496 1496 1495 1495 1494 1494 1493 1493 1492 1491 1491 1491 1491 1491 1491 1492 1491 1492 1491 1491 1490 1490 1490 1490 1489 1489 1489
1497 1496 1496 1495 1495 1494 1494 1493 1493 1493 1493 1492 1492 1491 1491 1490 1490 1489 1488 1488 1487 1487 1486 1486 1486 1486 1486 1485 1485 1487 1486 1485 1485 1485 1484 1484 1484 1484
1492 1492 1492 1491 1491 1490 1490 1489 1489 1488 1488 1487 1487 1486 1486 1485 1485 1484 1484 1483 1482 1482 1481 1481 1481 1481 1481 1480 1480 1480 1481 1480 1480 1479 1479 1479 1479 1479
1488 1488 1487 1487 1486 1486 1485 1485 1484 1484 1483 1482 1482 1481 1481 1480 1480 1479 1478 1478 1477 1477 1476 1476 1476 1476 1476 1476 1475 1474 1475 1475 1475 1475 1474 1474 1474 1473
1484 1483 1483 1482 1482 1481 1480 1480 1479 1479 1478 1477 1476 1476 1475 1475 1474 1473 1473 1473 1472 1471 1471 1471 1471 1471 1470 1470 1469 1469 1469 1470 1470 1470 1470 1469 1468 1467
1479 1478 1478 1477 1477 1476 1475 1475 1474 1473 1473 1472 1471 1471 1470 1469 1468 1468 1468 1467 1467 1466 1465 1465 1465 1465 1465 1464 1464 1464 1464 1464 1464 1464 1464 1464 1464 1464